• In Germany
  • List of Countries
  • For 7 days
  • Water Temperature
  • Satellite Maps
  • Weather Map
  • Weather Widgets
  • user-avatar
    Login

    Hourly Weather Igls

    Today, 26 March, Sunday

    Time Temperature Precipitation Wind Pressure Humidity
    00:00 +4°C° 0 mm 1 mps 684 mmHg 93%
    01:00 +4°C° 0 mm 1 mps 683 mmHg 94%
    02:00 +3°C° 0 mm 1 mps 683 mmHg 94%
    03:00 +3°C° 0 mm 1 mps 683 mmHg 94%
    04:00 +3°C° 0 mm 1 mps 683 mmHg 94%
    05:00 +3°C° 0 mm 1 mps 683 mmHg 93%
    06:00 +3°C° 0 mm 1 mps 683 mmHg 91%
    07:00 +3°C° 0 mm 1 mps 683 mmHg 90%
    08:00 +5°C° 0 mm 1 mps 684 mmHg 88%
    09:00 +7°C° 0 mm 1 mps 684 mmHg 87%
    10:00 +8°C° 0 mm 2 mps 685 mmHg 85%
    11:00 +8°C° 0.1 mm 2 mps 685 mmHg 85%
    12:00 +8°C° 0.1 mm 2 mps 685 mmHg 85%
    13:00 +8°C° 0.1 mm 2 mps 685 mmHg 85%
    14:00 +8°C° 0.1 mm 2 mps 685 mmHg 85%
    15:00 +8°C° 0.1 mm 2 mps 685 mmHg 85%
    16:00 +8°C° 0.1 mm 2 mps 685 mmHg 85%
    17:00 +7°C° 0 mm 2 mps 685 mmHg 88%
    18:00 +5°C° 0 mm 2 mps 686 mmHg 92%
    19:00 +5°C° 0 mm 1 mps 686 mmHg 95%
    20:00 +4°C° 0 mm 1 mps 686 mmHg 95%
    21:00 +3°C° 0 mm 1 mps 687 mmHg 96%
    22:00 +2°C° 0 mm 1 mps 687 mmHg 96%
    23:00 +2°C° 0 mm 1 mps 687 mmHg 95%

    Tomorrow, 27 March, Monday

    Time Temperature Precipitation Wind Pressure Humidity
    00:00 +2°C° 0 mm 1 mps 687 mmHg 95%
    01:00 +2°C° 0 mm 1 mps 687 mmHg 94%
    02:00 +2°C° 0 mm 1 mps 687 mmHg 93%
    03:00 +2°C° 0 mm 1 mps 687 mmHg 92%
    04:00 +1°C° 0 mm 2 mps 687 mmHg 91%
    05:00 +1°C° 0 mm 2 mps 687 mmHg 87%
    06:00 +2°C° 0 mm 2 mps 687 mmHg 84%
    07:00 +2°C° 0 mm 2 mps 687 mmHg 81%
    08:00 +6°C° 0 mm 1 mps 688 mmHg 74%
    09:00 +9°C° 0 mm 1 mps 688 mmHg 67%
    10:00 +12°C° 0 mm 1 mps 688 mmHg 60%
    11:00 +13°C° 0 mm 1 mps 688 mmHg 58%
    12:00 +14°C° 0 mm 1 mps 688 mmHg 56%
    13:00 +14°C° 0 mm 1 mps 688 mmHg 54%
    14:00 +14°C° 0 mm 1 mps 688 mmHg 57%
    15:00 +14°C° 0 mm 1 mps 688 mmHg 60%
    16:00 +14°C° 0 mm 1 mps 688 mmHg 63%
    17:00 +10°C° 0 mm 1 mps 687 mmHg 73%
    18:00 +7°C° 0 mm 1 mps 687 mmHg 83%
    19:00 +4°C° 0 mm 1 mps 686 mmHg 92%
    20:00 +4°C° 0 mm 1 mps 687 mmHg 92%
    21:00 +4°C° 0 mm 1 mps 687 mmHg 91%
    22:00 +4°C° 0 mm 1 mps 688 mmHg 91%
    23:00 +4°C° 0 mm 1 mps 688 mmHg 91%

    Day after tomorrow, 28 March, Tuesday

    Time Temperature Precipitation Wind Pressure Humidity
    00:00 +4°C° 0 mm 1 mps 688 mmHg 91%
    01:00 +3°C° 0 mm 2 mps 688 mmHg 91%
    02:00 +4°C° 0 mm 1 mps 688 mmHg 91%
    03:00 +3°C° 0 mm 1 mps 688 mmHg 91%
    04:00 +3°C° 0 mm 1 mps 688 mmHg 91%
    05:00 +4°C° 0 mm 1 mps 688 mmHg 89%
    06:00 +4°C° 0 mm 1 mps 688 mmHg 87%
    07:00 +5°C° 0 mm 1 mps 688 mmHg 85%
    08:00 +8°C° 0 mm 1 mps 689 mmHg 79%
    09:00 +10°C° 0 mm 1 mps 689 mmHg 72%
    10:00 +13°C° 0 mm 1 mps 690 mmHg 66%
    11:00 +14°C° 0 mm 1 mps 690 mmHg 64%
    12:00 +14°C° 0 mm 1 mps 690 mmHg 63%
    13:00 +15°C° 0 mm 1 mps 690 mmHg 62%
    14:00 +14°C° 0 mm 1 mps 689 mmHg 65%
    15:00 +14°C° 0 mm 1 mps 689 mmHg 69%
    16:00 +13°C° 0 mm 1 mps 689 mmHg 72%
    17:00 +11°C° 0 mm 1 mps 688 mmHg 80%
    18:00 +9°C° 0 mm 1 mps 688 mmHg 87%
    19:00 +6°C° 0 mm 1 mps 688 mmHg 94%
    20:00 +5°C° 0 mm 0 mps 688 mmHg 95%
    21:00 +4°C° 0 mm 0 mps 688 mmHg 96%
    22:00 +4°C° 0 mm 0 mps 688 mmHg 96%
    23:00 +3°C° 0 mm 0 mps 688 mmHg 96%

    29 March, Wednesday

    Time Temperature Precipitation Wind Pressure Humidity
    00:00 +3°C° 0 mm 0 mps 688 mmHg 96%
    01:00 +3°C° 0 mm 0 mps 688 mmHg 96%
    02:00 +3°C° 0 mm 0 mps 688 mmHg 96%
    03:00 +4°C° 0 mm 0 mps 688 mmHg 96%
    04:00 +5°C° 0 mm 1 mps 688 mmHg 96%
    05:00 +6°C° 0 mm 1 mps 689 mmHg 96%
    06:00 +7°C° 0 mm 1 mps 689 mmHg 95%
    07:00 +8°C° 0 mm 1 mps 689 mmHg 94%
    08:00 +9°C° 0 mm 1 mps 690 mmHg 86%
    09:00 +11°C° 0 mm 1 mps 690 mmHg 78%
    10:00 +13°C° 0 mm 1 mps 690 mmHg 70%
    11:00 +14°C° 0.1 mm 1 mps 690 mmHg 68%
    12:00 +14°C° 0.1 mm 1 mps 690 mmHg 65%
    13:00 +15°C° 0.1 mm 1 mps 690 mmHg 63%
    14:00 +15°C° 0.2 mm 1 mps 689 mmHg 66%
    15:00 +15°C° 0.2 mm 1 mps 689 mmHg 68%
    16:00 +14°C° 0.2 mm 1 mps 689 mmHg 71%
    17:00 +12°C° 0.2 mm 1 mps 688 mmHg 78%
    18:00 +9°C° 0.2 mm 1 mps 687 mmHg 86%
    19:00 +5°C° 0.2 mm 0 mps 687 mmHg 93%
    20:00 +5°C° 0 mm 0 mps 687 mmHg 94%
    21:00 +5°C° 0 mm 0 mps 687 mmHg 94%
    22:00 +4°C° 0 mm 0 mps 688 mmHg 94%
    23:00 +4°C° 0 mm 0 mps 688 mmHg 93%

    30 March, Thursday

    Time Temperature Precipitation Wind Pressure Humidity
    00:00 +4°C° 0 mm 0 mps 688 mmHg 91%
    01:00 +5°C° 0 mm 1 mps 688 mmHg 90%
    02:00 +5°C° 0 mm 1 mps 688 mmHg 88%
    03:00 +5°C° 0 mm 1 mps 687 mmHg 87%
    04:00 +5°C° 0 mm 1 mps 687 mmHg 85%
    05:00 +5°C° 0 mm 1 mps 688 mmHg 84%
    06:00 +6°C° 0 mm 1 mps 688 mmHg 82%
    07:00 +7°C° 0 mm 1 mps 688 mmHg 80%
    08:00 +9°C° 0 mm 1 mps 688 mmHg 73%
    09:00 +12°C° 0 mm 1 mps 689 mmHg 66%
    10:00 +14°C° 0 mm 1 mps 689 mmHg 59%
    11:00 +15°C° 0 mm 1 mps 689 mmHg 56%
    12:00 +16°C° 0 mm 1 mps 689 mmHg 52%
    13:00 +18°C° 0 mm 1 mps 688 mmHg 49%
    14:00 +17°C° 0 mm 2 mps 688 mmHg 51%
    15:00 +16°C° 0 mm 2 mps 688 mmHg 54%
    16:00 +16°C° 0 mm 2 mps 687 mmHg 56%
    17:00 +13°C° 0 mm 1 mps 687 mmHg 66%
    18:00 +10°C° 0 mm 1 mps 686 mmHg 76%
    19:00 +7°C° 0 mm 1 mps 685 mmHg 87%
    20:00 +7°C° 0 mm 1 mps 686 mmHg 86%
    21:00 +6°C° 0 mm 2 mps 686 mmHg 86%
    22:00 +6°C° 0 mm 2 mps 686 mmHg 86%
    23:00 +6°C° 0 mm 2 mps 686 mmHg 86%

    31 March, Friday

    Time Temperature Precipitation Wind Pressure Humidity
    00:00 +5°C° 0 mm 2 mps 686 mmHg 86%
    01:00 +5°C° 0 mm 2 mps 686 mmHg 86%
    02:00 +5°C° 0 mm 2 mps 686 mmHg 87%
    03:00 +5°C° 0 mm 2 mps 686 mmHg 87%
    04:00 +5°C° 0 mm 2 mps 685 mmHg 88%
    05:00 +5°C° 0 mm 2 mps 686 mmHg 86%
    06:00 +5°C° 0 mm 2 mps 686 mmHg 85%
    07:00 +6°C° 0 mm 2 mps 686 mmHg 83%
    08:00 +9°C° 0 mm 1 mps 686 mmHg 73%
    09:00 +11°C° 0 mm 1 mps 686 mmHg 63%
    10:00 +14°C° 0 mm 1 mps 686 mmHg 53%
    11:00 +15°C° 0 mm 1 mps 685 mmHg 51%
    12:00 +15°C° 0 mm 1 mps 685 mmHg 50%
    13:00 +16°C° 0 mm 2 mps 685 mmHg 48%
    14:00 +15°C° 0.2 mm 2 mps 684 mmHg 53%
    15:00 +15°C° 0.2 mm 2 mps 683 mmHg 57%
    16:00 +15°C° 0.2 mm 2 mps 683 mmHg 61%
    17:00 +12°C° 0.1 mm 2 mps 682 mmHg 71%
    18:00 +9°C° 0.1 mm 2 mps 682 mmHg 81%
    19:00 +6°C° 0.1 mm 2 mps 681 mmHg 91%
    20:00 +6°C° 0 mm 2 mps 681 mmHg 91%
    21:00 +6°C° 0 mm 2 mps 681 mmHg 91%
    22:00 +6°C° 0 mm 2 mps 682 mmHg 91%
    23:00 +6°C° 0 mm 2 mps 682 mmHg 91%
    Show more